WAT1772 EDDH-EKCH

Flight info

Callsign WAT1772
Flight time 0h 28m
Altitude 23000
Route LUGEG3G LUGEG P605 GESKA/N0403F220 Z711 MONAK
Aircraft B738/M-SDE2E3FGHIRWXY/LB1

Departure

Time 2026-04-22 08:53
Airport Hamburg Helmut Schmidt Airport (EDDH)

Arrival

Time 2026-04-22 09:21
Airport Copenhagen Kastrup Airport (EKCH)
Time Latitude Longitude Altitude Speed Heading
2026-04-22 07:40 53.62838 9.99099 63 ft 0 kts 22°
2026-04-22 08:43 53.62832 9.99095 62 ft 2 kts 25°
2026-04-22 08:43 53.62819 9.99084 62 ft 2 kts 24°
2026-04-22 08:44 53.62805 9.99074 62 ft 2 kts 24°
2026-04-22 08:44 53.62791 9.99063 62 ft 2 kts 24°
2026-04-22 08:44 53.62777 9.99052 62 ft 2 kts 24°
2026-04-22 08:44 53.62763 9.99042 62 ft 2 kts 24°
2026-04-22 08:45 53.62750 9.99031 62 ft 2 kts 24°
2026-04-22 08:45 53.62737 9.99021 62 ft 0 kts 24°
2026-04-22 08:45 53.62730 9.99017 62 ft 1 kts 352°
2026-04-22 08:45 53.62723 9.99021 62 ft 1 kts 330°
2026-04-22 08:46 53.62722 9.99023 62 ft 0 kts 332°
2026-04-22 08:47 53.62716 9.99028 62 ft 2 kts 332°
2026-04-22 08:47 53.62703 9.99040 62 ft 2 kts 332°
2026-04-22 08:47 53.62689 9.99052 62 ft 2 kts 332°
2026-04-22 08:48 53.62675 9.99061 62 ft 2 kts
2026-04-22 08:48 53.62660 9.99054 62 ft 2 kts 34°
2026-04-22 08:48 53.62651 9.99041 62 ft 0 kts 58°
2026-04-22 08:48 53.62652 9.99042 62 ft 0 kts 63°
2026-04-22 08:50 53.62654 9.99049 62 ft 0 kts 63°
2026-04-22 08:50 53.62656 9.99066 62 ft 2 kts 96°
2026-04-22 08:51 53.62642 9.99092 62 ft 4 kts 147°
2026-04-22 08:51 53.62600 9.99134 62 ft 10 kts 143°
2026-04-22 08:51 53.62584 9.99261 62 ft 9 kts 74°
2026-04-22 08:51 53.62603 9.99445 62 ft 20 kts 79°
2026-04-22 08:52 53.62630 9.99682 62 ft 20 kts 78°
2026-04-22 08:52 53.62711 9.99860 62 ft 19 kts
2026-04-22 08:52 53.62833 9.99768 62 ft 15 kts 333°
2026-04-22 08:52 53.63070 9.99565 62 ft 72 kts 332°
2026-04-22 08:53 53.63741 9.98988 63 ft 138 kts 333°
2026-04-22 08:53 53.64727 9.98118 434 ft 163 kts 331°
2026-04-22 08:53 53.65788 9.97214 1061 ft 174 kts 333°
2026-04-22 08:53 53.66897 9.96275 1758 ft 183 kts 332°
2026-04-22 08:54 53.68184 9.95182 1991 ft 222 kts 333°
2026-04-22 08:54 53.69667 9.94577 2821 ft 224 kts 358°
2026-04-22 08:54 53.71260 9.94656 3655 ft 226 kts 359°
2026-04-22 08:54 53.72884 9.95080 4217 ft 245 kts 21°
2026-04-22 08:55 53.74227 9.96908 4428 ft 258 kts 55°
2026-04-22 08:55 53.75029 9.99830 4423 ft 275 kts 65°
2026-04-22 08:55 53.75837 10.02785 4404 ft 269 kts 62°
2026-04-22 08:55 53.76683 10.05657 4403 ft 272 kts 62°
2026-04-22 08:56 53.77531 10.08592 4401 ft 273 kts 63°
2026-04-22 08:56 53.78370 10.11510 4400 ft 272 kts 63°
2026-04-22 08:56 53.79218 10.14494 4683 ft 285 kts 63°
2026-04-22 08:56 53.80097 10.17526 5728 ft 280 kts 62°
2026-04-22 08:57 53.80955 10.20527 6431 ft 287 kts 63°
2026-04-22 08:57 53.81852 10.23632 7275 ft 289 kts 63°
2026-04-22 08:57 53.82733 10.26708 8009 ft 294 kts 64°
2026-04-22 08:57 53.83633 10.29882 8783 ft 297 kts 64°
2026-04-22 08:58 53.84553 10.33136 9512 ft 302 kts 63°
2026-04-22 08:58 53.85473 10.36360 10231 ft 306 kts 64°
2026-04-22 08:58 53.86420 10.39692 10810 ft 316 kts 65°
2026-04-22 08:58 53.87422 10.43243 10954 ft 341 kts 64°
2026-04-22 08:59 53.88488 10.47009 11217 ft 361 kts 64°
2026-04-22 08:59 53.89632 10.51055 11424 ft 381 kts 65°
2026-04-22 08:59 53.90798 10.55183 11955 ft 390 kts 65°
2026-04-22 08:59 53.91984 10.59391 12530 ft 397 kts 65°
2026-04-22 09:00 53.93200 10.63711 13184 ft 402 kts 64°
2026-04-22 09:00 53.94671 10.67830 13775 ft 410 kts 51°
2026-04-22 09:00 53.96612 10.71495 14526 ft 412 kts 46°
2026-04-22 09:00 53.98620 10.75071 15017 ft 421 kts 46°
2026-04-22 09:01 54.00669 10.78773 15725 ft 424 kts 46°
2026-04-22 09:01 54.02712 10.82485 16299 ft 429 kts 46°
2026-04-22 09:01 54.04802 10.86289 16976 ft 432 kts 46°
2026-04-22 09:01 54.06884 10.90088 17564 ft 436 kts 46°
2026-04-22 09:02 54.08966 10.93893 18161 ft 439 kts 45°
2026-04-22 09:02 54.11066 10.97739 18738 ft 443 kts 45°
2026-04-22 09:02 54.13222 11.01706 19306 ft 446 kts 45°
2026-04-22 09:02 54.15350 11.05644 19861 ft 449 kts 45°
2026-04-22 09:03 54.17513 11.09651 20342 ft 453 kts 45°
2026-04-22 09:03 54.19678 11.13668 20833 ft 457 kts 45°
2026-04-22 09:03 54.21862 11.17728 21304 ft 461 kts 45°
2026-04-22 09:03 54.24048 11.21807 21764 ft 464 kts 45°
2026-04-22 09:04 54.26302 11.25871 22202 ft 466 kts 39°
2026-04-22 09:04 54.28985 11.29151 22298 ft 470 kts 24°
2026-04-22 09:04 54.31934 11.31602 23045 ft 463 kts 20°
2026-04-22 09:04 54.34857 11.33980 23364 ft 467 kts 21°
2026-04-22 09:05 54.37814 11.36507 23365 ft 470 kts 22°
2026-04-22 09:05 54.40752 11.39095 23363 ft 463 kts 22°
2026-04-22 09:05 54.43632 11.41670 23361 ft 461 kts 22°
2026-04-22 09:05 54.46500 11.44252 23356 ft 461 kts 23°
2026-04-22 09:06 54.49365 11.46852 23353 ft 462 kts 23°
2026-04-22 09:06 54.52217 11.49457 23349 ft 462 kts 23°
2026-04-22 09:06 54.55078 11.52084 23348 ft 462 kts 23°
2026-04-22 09:06 54.57946 11.54727 23344 ft 463 kts 23°
2026-04-22 09:07 54.60812 11.57378 23340 ft 463 kts 23°
2026-04-22 09:07 54.63661 11.60021 23336 ft 462 kts 23°
2026-04-22 09:07 54.66502 11.62668 23127 ft 453 kts 23°
2026-04-22 09:07 54.69272 11.65255 22417 ft 448 kts 24°
2026-04-22 09:08 54.72028 11.67829 21705 ft 443 kts 25°
2026-04-22 09:08 54.74758 11.70382 20990 ft 438 kts 25°
2026-04-22 09:08 54.77427 11.72885 20289 ft 433 kts 25°
2026-04-22 09:08 54.80096 11.75394 19580 ft 429 kts 25°
2026-04-22 09:09 54.82722 11.77869 18880 ft 425 kts 26°
2026-04-22 09:09 54.85324 11.80330 18182 ft 420 kts 26°
2026-04-22 09:09 54.87900 11.82773 17485 ft 416 kts 26°
2026-04-22 09:09 54.90452 11.85193 16790 ft 412 kts 26°
2026-04-22 09:10 54.92992 11.87605 16097 ft 408 kts 27°
2026-04-22 09:10 54.95472 11.89965 15416 ft 393 kts 27°
2026-04-22 09:10 54.97842 11.92225 14774 ft 379 kts 27°
2026-04-22 09:10 55.00191 11.94461 14137 ft 387 kts 27°
2026-04-22 09:11 55.02557 11.96715 13459 ft 377 kts 27°
2026-04-22 09:11 55.04856 11.98912 12828 ft 375 kts 27°
2026-04-22 09:11 55.07168 12.01119 12175 ft 376 kts 27°
2026-04-22 09:11 55.09432 12.03288 11540 ft 363 kts 27°
2026-04-22 09:12 55.11673 12.05436 11130 ft 351 kts 27°
2026-04-22 09:12 55.13739 12.07421 10940 ft 326 kts 27°
2026-04-22 09:12 55.15722 12.09324 10556 ft 322 kts 26°
2026-04-22 09:12 55.17701 12.11223 9911 ft 316 kts 26°
2026-04-22 09:13 55.19643 12.13089 9274 ft 311 kts 26°
2026-04-22 09:13 55.21524 12.14899 8647 ft 305 kts 26°
2026-04-22 09:13 55.23376 12.16685 8017 ft 301 kts 26°
2026-04-22 09:13 55.25220 12.18464 7381 ft 296 kts 26°
2026-04-22 09:14 55.27023 12.20206 6749 ft 292 kts 25°
2026-04-22 09:14 55.28811 12.21936 6120 ft 290 kts 25°
2026-04-22 09:14 55.30602 12.23670 5483 ft 289 kts 25°
2026-04-22 09:14 55.32373 12.25388 4849 ft 287 kts 26°
2026-04-22 09:15 55.34153 12.27116 4209 ft 286 kts 26°
2026-04-22 09:15 55.35907 12.28820 3573 ft 284 kts 26°
2026-04-22 09:15 55.37646 12.30512 3036 ft 277 kts 26°
2026-04-22 09:15 55.39284 12.32113 2968 ft 254 kts 26°
2026-04-22 09:16 55.40782 12.33577 2984 ft 232 kts 25°
2026-04-22 09:16 55.42193 12.34987 2995 ft 226 kts 28°
2026-04-22 09:16 55.43470 12.36543 3018 ft 217 kts 33°
2026-04-22 09:16 55.44694 12.38167 3001 ft 213 kts 33°
2026-04-22 09:17 55.45824 12.39788 2983 ft 196 kts 36°
2026-04-22 09:17 55.46862 12.41355 2991 ft 191 kts 37°
2026-04-22 09:17 55.47842 12.42852 2949 ft 178 kts 36°
2026-04-22 09:17 55.48777 12.44284 2746 ft 169 kts 37°
2026-04-22 09:18 55.49647 12.45617 2587 ft 161 kts 36°
2026-04-22 09:18 55.50497 12.46921 2303 ft 156 kts 37°
2026-04-22 09:18 55.51328 12.48196 2107 ft 155 kts 37°
2026-04-22 09:18 55.52145 12.49451 1891 ft 155 kts 37°
2026-04-22 09:19 55.52968 12.50718 1676 ft 154 kts 37°
2026-04-22 09:19 55.53788 12.51979 1462 ft 153 kts 37°
2026-04-22 09:19 55.54601 12.53231 1251 ft 152 kts 37°
2026-04-22 09:19 55.55405 12.54469 1043 ft 152 kts 37°
2026-04-22 09:20 55.56241 12.55760 849 ft 151 kts 37°
2026-04-22 09:20 55.57071 12.57037 632 ft 151 kts 37°
2026-04-22 09:20 55.57890 12.58294 417 ft 150 kts 38°
2026-04-22 09:20 55.58704 12.59550 201 ft 150 kts 38°
2026-04-22 09:21 55.59497 12.60780 36 ft 144 kts 38°
2026-04-22 09:21 55.60152 12.61783 25 ft 94 kts 40°
2026-04-22 09:21 55.60527 12.62367 25 ft 50 kts 39°
2026-04-22 09:21 55.60764 12.62702 21 ft 32 kts 39°
2026-04-22 09:22 55.60916 12.62841 20 ft 17 kts 15°
2026-04-22 09:22 55.61015 12.62882 19 ft 11 kts 11°
2026-04-22 09:22 55.61076 12.62904 19 ft 5 kts 11°
2026-04-22 09:22 55.61094 12.62912 19 ft 0 kts 15°
2026-04-22 09:23 55.61103 12.62917 19 ft 7 kts 16°
2026-04-22 09:23 55.61187 12.63007 19 ft 17 kts 40°
2026-04-22 09:23 55.61288 12.63165 20 ft 20 kts 41°
2026-04-22 09:23 55.61402 12.63339 23 ft 22 kts 37°
2026-04-22 09:24 55.61535 12.63528 24 ft 25 kts 43°
2026-04-22 09:24 55.61650 12.63717 24 ft 19 kts 41°
2026-04-22 09:24 55.61743 12.63866 24 ft 18 kts 40°
2026-04-22 09:24 55.61843 12.64024 24 ft 18 kts 40°
2026-04-22 09:25 55.61962 12.64145 26 ft 17 kts 25°
2026-04-22 09:25 55.62080 12.64243 26 ft 16 kts 25°
2026-04-22 09:25 55.62183 12.64330 25 ft 14 kts 25°
2026-04-22 09:25 55.62265 12.64316 25 ft 11 kts 308°
2026-04-22 09:26 55.62323 12.64170 26 ft 15 kts 303°
2026-04-22 09:26 55.62392 12.63987 27 ft 19 kts 304°
2026-04-22 09:26 55.62495 12.63795 27 ft 24 kts 333°
2026-04-22 09:26 55.62635 12.63802 26 ft 18 kts 24°
2026-04-22 09:27 55.62729 12.63903 26 ft 13 kts 32°
2026-04-22 09:27 55.62799 12.63954 26 ft 9 kts 355°
2026-04-22 09:27 55.62833 12.63911 26 ft 1 kts 311°
2026-04-22 09:27 55.62840 12.63887 26 ft 2 kts 299°
2026-04-22 09:28 55.62853 12.63868 26 ft 2 kts 341°
2026-04-22 09:28 55.62872 12.63866 26 ft 2 kts
2026-04-22 09:28 55.62888 12.63870 26 ft 1 kts
2026-04-22 09:28 55.62892 12.63871 26 ft 0 kts 10°